Weather History for K1M4 - July, 2013

Change the Weather History Date:

Sunday, July 7, 2013

  Actual Average (KJFX) Record (KJFX)
Temperature  
Mean Temperature 76 °F -  
Max Temperature 82 °F 89 °F 103 °F (1977)
Min Temperature 70 °F 65 °F 51 °F (1972)
Cooling Degree Days 11    
Growing Degree Days 26 (Base 50)    
Moisture  
Dew Point 71 °F    
Average Humidity 91    
Maximum Humidity 100    
Minimum Humidity 69    
Precipitation  
Precipitation 0.10 in - - ()
Sea Level Pressure  
Sea Level Pressure 30.16 in    
Wind  
Wind Speed 2 mph (South)    
Max Wind Speed 13 mph    
Max Gust Speed -    
Visibility 7 miles    
Events Rain    
Averages and records for this station are not official NWS values.
T = Trace of Precipitation, MM = Missing Value Source: NWS Daily Summary

Daily Weather History Graph

Daily Weather History Graph

Search for Another Location

Airport or City:

Trip Planner

Search our weather history database for the weather conditions in past years. The results will help you decide how hot, cold, wet, or windy it might be!

Date:

Astronomy

Jul. 07, 2013 Rise Set
Actual Time 5:45 AM CDT 8:05 PM CDT
Civil Twilight 5:16 AM CDT 8:34 PM CDT
Nautical Twilight 4:40 AM CDT 9:10 PM CDT
Astronomical Twilight 4:01 AM CDT 9:48 PM CDT
Moon 5:18 AM CDT (7/7) 7:32 PM CDT (7/7)
Length of Visible Light 15h 18m
Length of Day
14h 20m
Waning Crescent, 0% of the Moon is Illuminated
Jul 7
Waning Crescent
Jul 8
New
Jul 15
First Quarter
Jul 22
Full
Jul 29
Last Quarter

Hourly Weather History & Observations

Time (CDT) Temp. Heat Index Dew Point Humidity Pressure Visibility Wind Dir Wind Speed Gust Speed Precip Events Conditions
12:56 AM 70.9 °F - 70.9 °F 100% 30.16 in 10.0 mi Calm Calm - N/A   Overcast
1:56 AM 70.9 °F - 70.9 °F 100% 30.16 in 10.0 mi Calm Calm - N/A   Overcast
2:56 AM 70.9 °F - 70.9 °F 100% 30.16 in 7.0 mi South 3.5 mph - N/A   Overcast
3:39 AM 71.6 °F - 71.6 °F 100% 30.13 in 7.0 mi South 3.5 mph - N/A   Overcast
3:56 AM 70.9 °F - 70.9 °F 100% 30.16 in 7.0 mi Calm Calm - N/A   Overcast
4:28 AM 71.6 °F - 71.6 °F 100% 30.12 in 6.0 mi Calm Calm - N/A   Overcast
4:41 AM 71.6 °F - 71.6 °F 100% 30.12 in 6.0 mi Calm Calm - N/A   Overcast
4:56 AM 70.9 °F - 70.9 °F 100% 30.16 in 2.0 mi Calm Calm - 0.00 in Rain Light Rain
5:05 AM 71.6 °F - 71.6 °F 100% 30.12 in 1.8 mi Calm Calm - 0.00 in Rain Rain
5:22 AM 71.6 °F - 71.6 °F 100% 30.13 in 3.0 mi Calm Calm - 0.01 in Rain Light Rain
5:35 AM 71.6 °F - 71.6 °F 100% 30.13 in 5.0 mi Calm Calm - 0.01 in Rain Light Rain
5:44 AM 71.6 °F - 71.6 °F 100% 30.13 in 3.0 mi Calm Calm - 0.01 in Rain Light Rain
5:56 AM 70.9 °F - 70.9 °F 100% 30.17 in 2.0 mi Calm Calm - 0.01 in Rain Light Rain
6:00 AM 71.6 °F - 71.6 °F 100% 30.13 in 3.0 mi Calm Calm - 0.00 in Rain Light Rain
6:10 AM 71.6 °F - 71.6 °F 100% 30.14 in 2.5 mi Calm Calm - 0.01 in Rain Light Rain
6:19 AM 71.6 °F - 71.6 °F 100% 30.14 in 4.0 mi NW 3.5 mph - 0.02 in Rain Light Rain
6:26 AM 71.6 °F - 71.6 °F 100% 30.14 in 1.8 mi Calm Calm - 0.02 in Rain Heavy Rain
6:31 AM 71.6 °F - 71.6 °F 100% 30.14 in 1.0 mi Calm Calm - 0.02 in Rain Light Rain
6:37 AM 71.6 °F - 71.6 °F 100% 30.14 in 1.2 mi Calm Calm - 0.03 in Rain Light Rain
6:45 AM 71.6 °F - 71.6 °F 100% 30.14 in 2.0 mi Calm Calm - 0.03 in Rain Light Rain
6:56 AM 70.9 °F - 70.9 °F 100% 30.18 in 6.0 mi Calm Calm - 0.03 in Rain Light Rain
7:04 AM 71.6 °F - 71.6 °F 100% 30.15 in 8.0 mi Calm Calm - 0.00 in   Overcast
7:42 AM 71.6 °F - 71.6 °F 100% 30.16 in 6.0 mi South 4.6 mph - 0.00 in   Overcast
7:56 AM 72.0 °F - 72.0 °F 100% 30.19 in 6.0 mi South 3.5 mph - 0.00 in   Overcast
8:22 AM 73.4 °F - 69.8 °F 88% 30.17 in 9.0 mi South 3.5 mph - N/A   Overcast
8:48 AM 73.4 °F - 71.6 °F 94% 30.17 in 10.0 mi SSE 4.6 mph - N/A   Overcast
8:56 AM 74.8 °F - 70.9 °F 87% 30.21 in 10.0 mi Variable 4.6 mph - N/A   Overcast
9:56 AM 77.0 °F - 68.9 °F 76% 30.20 in 10.0 mi WSW 3.5 mph - N/A   Partly Cloudy
10:56 AM 81.0 °F 84.7 °F 70.9 °F 71% 30.21 in 10.0 mi East 3.5 mph - N/A   Scattered Clouds
11:29 AM 80.6 °F 84.6 °F 71.6 °F 74% 30.18 in 10.0 mi South 5.8 mph - N/A   Mostly Cloudy
11:36 AM 80.6 °F 84.6 °F 71.6 °F 74% 30.18 in 10.0 mi Calm Calm - N/A   Mostly Cloudy
11:44 AM 80.6 °F 84.6 °F 71.6 °F 74% 30.17 in 10.0 mi Variable 6.9 mph - N/A   Mostly Cloudy
11:56 AM 79.9 °F - 70.9 °F 74% 30.20 in 10.0 mi South 9.2 mph - N/A   Mostly Cloudy
12:56 PM 81.9 °F 86.0 °F 70.9 °F 69% 30.19 in 10.0 mi Variable 4.6 mph - N/A   Scattered Clouds
1:33 PM 82.4 °F 87.2 °F 71.6 °F 70% 30.15 in 10.0 mi South 9.2 mph - N/A   Mostly Cloudy
1:40 PM 82.4 °F 87.2 °F 71.6 °F 70% 30.15 in 10.0 mi SSE 10.4 mph - N/A   Mostly Cloudy
1:56 PM 81.9 °F 86.0 °F 70.9 °F 69% 30.18 in 10.0 mi South 10.4 mph - N/A   Scattered Clouds
2:56 PM 81.0 °F 84.7 °F 70.9 °F 71% 30.17 in 10.0 mi Calm Calm - N/A   Scattered Clouds
3:56 PM 82.9 °F 88.0 °F 72.0 °F 69% 30.16 in 10.0 mi South 12.7 mph - N/A   Mostly Cloudy
4:07 PM 78.8 °F - 69.8 °F 74% 30.13 in 10.0 mi South 11.5 mph - N/A   Mostly Cloudy
4:17 PM 75.2 °F - 71.6 °F 89% 30.13 in 2.5 mi SSW 8.1 mph - 0.02 in Rain Rain
4:20 PM 75.2 °F - 71.6 °F 89% 30.13 in 1.2 mi SW 6.9 mph - 0.05 in Rain Heavy Rain
4:23 PM 75.2 °F - 71.6 °F 89% 30.14 in 1.0 mi SW 6.9 mph - 0.06 in Rain Heavy Rain
4:29 PM 75.2 °F - 73.4 °F 94% 30.13 in 1.5 mi SW 8.1 mph - 0.06 in Rain Rain
4:33 PM 75.2 °F - 73.4 °F 94% 30.13 in 4.0 mi SSW 8.1 mph - 0.06 in Rain Heavy Rain
4:42 PM 75.2 °F - 73.4 °F 94% 30.13 in 10.0 mi SW 5.8 mph - 0.06 in Rain Light Rain
4:56 PM 75.9 °F - 73.9 °F 94% 30.17 in 10.0 mi SSW 11.5 mph - 0.06 in   Mostly Cloudy
5:56 PM 74.8 °F - 72.0 °F 91% 30.16 in 10.0 mi SSE 5.8 mph - N/A   Partly Cloudy
6:56 PM 75.9 °F - 70.9 °F 84% 30.17 in 10.0 mi South 4.6 mph - N/A   Scattered Clouds
7:56 PM 74.8 °F - 72.0 °F 91% 30.18 in 10.0 mi SSW 10.4 mph - N/A   Scattered Clouds
8:56 PM 72.9 °F - 72.0 °F 97% 30.19 in 10.0 mi Calm Calm - N/A   Clear
9:56 PM 72.9 °F - 70.9 °F 93% 30.21 in 10.0 mi South 3.5 mph - N/A   Mostly Cloudy
10:56 PM 70.9 °F - 70.9 °F 100% 30.21 in 10.0 mi Calm Calm - N/A   Partly Cloudy
11:56 PM 70.0 °F - 70.0 °F 100% 30.21 in 10.0 mi Calm Calm - N/A   Clear